Flag for Germany Weather past 2 weeks in Ehingen (Donau), Baden-Württemberg, Germany

Now
77 °F

Passing clouds.


Feels Like: 79 °F
Forecast: 61 / 81 °F
Wind: 10 mph from West

Location: Laupheim Airport

Current Time: Aug 31, 2015 at 11:30:39 AM

Latest Report: Aug 31, 2015 at 10:20 AM


Visibility: N/A

Pressure: 30.07 "Hg (28.37 "Hg at 508m altitude)

Humidity: 54%

Dew point: 59 °F

Location of Ehingen (Donau)Location

Historic Weather in Ehingen (Donau) — Graph

°F

Ehingen (Donau) temperature yesterday

Maximum temperature yesterday: 90 °F (at 3:20 PM)
Minimum temperature yesterday: 63 °F (at 5:20 AM)
Average temperature yesterday: 76 °F

Past Weeks' High & Low Weather Summary

 TemperatureHumidityPressure
High90 °F (Aug 30, 3:20 PM)100% (Aug 18, 3:20 AM)30.30 "Hg (Aug 18, 3:20 AM)
Low46 °F (Aug 26, 5:20 AM)29% (Aug 27, 3:20 PM)29.74 "Hg (Aug 24, 8:20 AM)
Average64 °F72%30.06 "Hg
* Reported Aug 16 10:20 AM — Aug 31 10:20 AM, Ehingen (Donau), Weather by CustomWeather, © 2015

Note: Actual official high and low records may vary slightly from our data, if they occured in-between our weather recording intervals... More about our weather records

Advertising

Ehingen (Donau) weather history for previous 24 hours

 ConditionsComfort  
Time TempWeatherWind HumidityBarometerVisibility
10:20 AM
Mon, Aug 31
77 °FPassing clouds.10 mph54%30.07 "HgN/A
9:20 AM72 °FPassing clouds.8 mph65%30.07 "HgN/A
8:20 AM66 °FPassing clouds.8 mph78%30.07 "HgN/A
7:20 AM64 °FPassing clouds.5 mph78%30.07 "HgN/A
6:20 AM63 °FPassing clouds.5 mph83%30.07 "HgN/A
5:20 AM63 °FPassing clouds.5 mph83%30.07 "HgN/A
4:20 AM64 °FMild.2 mph78%30.04 "HgN/A
3:20 AM66 °FMild.2 mph73%30.04 "HgN/A
2:20 AM64 °FMild.2 mph83%30.07 "HgN/A
1:20 AM68 °FPassing clouds.3 mph73%30.07 "HgN/A
12:20 AM70 °FMild.3 mph69%30.09 "HgN/A
11:20 PM
Sun, Aug 30
72 °FMild.2 mph65%30.09 "HgN/A
10:20 PM73 °FMild.2 mph65%30.09 "HgN/A
9:20 PM77 °FPassing clouds.3 mph54%30.09 "HgN/A
8:20 PM81 °FPassing clouds.2 mph48%30.07 "HgN/A
7:20 PM88 °FPleasantly warm.1 mph35%30.07 "Hg4 mi
6:20 PM88 °FPleasantly warm.2 mph35%30.07 "Hg5 mi
5:20 PM90 °FHot.1 mph33%30.09 "Hg4 mi
4:20 PM90 °FHot.3 mph33%30.09 "Hg4 mi
3:20 PM90 °FHot.5 mph33%30.12 "Hg5 mi
2:20 PM88 °FPleasantly warm.6 mph38%30.12 "Hg5 mi
1:20 PM86 °FWarm.7 mph43%30.15 "HgN/A
12:20 PM84 °FWarm.6 mph48%30.15 "Hg6 mi
11:20 AM81 °FWarm.9 mph54%30.18 "Hg5 mi
Weather by CustomWeather, © 2015

See weather overviewHow to use our weather pages